Wind_Speed
3 4 5 5 4 4 4 4 5 5 4 4 4 3 4 4 4 4 5 5 6 6 6 6 6 6 6 7 7 7 7 7 8 8 8 8 8 8 8 7 7 7 7
4 4 5 5 4 4 4 4 5 4 4 4 4 4 3 3 5 5 6 6 6 7 7 7 7 7 7 8 9 8 8 8 9 9 10 10 10 9 9 9 8 9 9
4 4 5 5 4 5 5 4 5 5 4 4 4 5 4 5 5 6 6 7 7 7 7 7 7 7 8 8 9 9 9 9 10 11 11 11 11 11 11 10 10 10 10
4 4 5 5 5 5 5 5 6 6 6 6 6 6 6 6 6 6 7 7 8 8 8 9 8 8 9 10 10 10 11 10 11 11 11 12 12 12 12 12 12 12 12
3 3 4 5 5 4 4 5 5 6 6 7 7 7 7 8 8 8 8 9 9 9 9 10 10 10 11 11 11 11 11 12 12 12 12 12 13 13 13 13 14 14 14
2 3 3 4 4 4 5 5 5 6 7 7 7 7 8 9 9 9 9 10 11 11 11 12 12 12 12 12 12 12 13 13 13 13 13 14 14 14 15 15 15 16 16
2 2 2 3 4 4 5 5 5 7 8 8 8 8 9 10 10 11 11 11 12 12 12 12 13 14 14 14 14 14 14 15 15 15 15 15 16 16 16 16 17 17 17
3 3 3 2 3 4 4 5 6 7 8 8 9 9 10 11 11 12 12 12 12 13 13 13 13 15 15 15 16 16 16 17 17 17 17 17 17 17 18 18 18 18 19
4 4 4 3 3 4 5 6 7 7 8 9 10 10 11 12 12 13 14 14 14 14 14 15 15 15 16 17 17 17 18 18 19 19 19 19 18 18 19 19 20 20 20
6 5 5 5 5 5 6 7 8 8 8 9 11 12 12 13 13 14 15 15 16 16 16 16 17 17 17 17 18 19 19 19 19 20 20 21 20 20 20 20 20 21 22
7 6 6 7 7 6 6 7 8 8 8 9 10 12 13 14 15 15 16 17 18 18 18 18 18 18 18 19 19 19 19 20 20 21 21 22 22 22 22 22 22 22 23
8 8 7 7 7 7 7 8 8 8 9 10 10 11 13 14 15 16 16 17 18 18 19 19 19 19 19 19 19 20 20 20 21 22 22 23 24 23 23 23 23 23 24
8 8 8 9 9 8 8 9 9 9 9 10 11 12 13 14 15 16 17 18 18 19 19 19 18 19 19 20 20 21 21 22 22 23 23 24 24 24 25 25 25 25 25
10 9 9 9 9 9 9 9 10 10 11 11 11 12 13 14 15 16 17 18 19 20 20 20 20 21 21 21 21 22 23 24 24 24 24 25 25 25 25 25 26 26 26
11 11 10 10 10 11 10 10 11 11 12 12 13 13 14 15 16 16 17 18 18 19 20 22 22 22 22 22 23 23 24 24 25 25 25 25 25 26 26 26 26 26 27
12 13 12 11 11 11 11 11 11 11 12 13 13 14 15 15 16 17 18 18 19 19 19 21 22 22 23 23 23 24 24 24 25 25 25 26 26 26 27 26 27 27 27
13 13 13 13 12 11 12 12 12 13 14 14 14 15 16 17 18 18 18 19 20 20 20 21 22 23 23 23 23 24 25 26 26 27 27 27 27 27 27 27 28 28 28
14 14 14 14 13 13 14 14 14 15 15 15 16 17 17 17 18 19 19 20 20 20 21 21 22 23 23 23 23 24 25 26 26 27 27 28 28 28 28 28 28 28 28
15 15 15 15 15 14 14 14 14 15 15 16 16 17 17 18 19 19 20 20 20 21 21 21 22 22 23 24 24 25 25 25 26 26 26 27 27 27 27 27 27 28 28
16 16 17 17 17 16 15 15 15 15 16 17 17 18 18 18 19 19 20 20 20 21 22 22 21 22 23 24 25 26 26 27 26 26 26 27 27 27 27 27 28 28 28
18 18 18 18 18 17 17 17 17 17 18 18 19 19 20 20 20 20 21 21 21 22 22 22 23 23 24 25 26 26 27 27 27 26 27 27 28 28 28 28 28 28 29
20 20 20 20 19 19 19 19 19 20 20 21 21 22 21 21 22 22 22 22 22 23 23 23 24 25 25 26 26 27 27 27 27 28 28 27 28 28 29 28 28 29 30
23 23 22 22 22 22 21 21 21 22 22 22 23 23 22 22 23 23 24 24 24 24 24 25 25 26 26 26 27 27 27 28 28 28 28 28 29 29 30 30 31 31 32
25 24 24 24 24 24 24 24 24 24 24 24 24 25 25 24 24 25 25 25 25 25 25 26 26 26 27 27 27 28 28 28 28 28 29 29 30 31 31 31 32 32 32
26 26 26 26 26 26 27 26 26 26 26 27 27 28 27 27 27 27 27 26 27 27 27 26 27 27 28 28 29 29 29 29 29 29 30 30 30 30 30 30 31 31 32
29 29 28 28 28 28 28 28 27 28 28 28 29 29 29 29 29 29 28 28 28 28 28 28 28 29 29 29 30 30 31 31 31 31 31 31 31 31 31 31 32 32 33
Wind_Direction
192 199 209 209 207 209 205 199 205 197 200 207 210 207 217 223 235 234 230 231 235 242 251 257 251 242 243 248 255 253 251 252 256 259 262 264 267 271 272 275 277 281 286
213 214 216 218 215 216 212 202 201 207 213 219 221 223 228 236 239 242 241 242 246 254 258 262 262 258 253 255 259 264 255 257 260 262 263 265 268 273 276 274 276 280 283
223 226 230 225 216 213 211 214 222 223 229 232 234 241 246 250 243 247 252 252 255 258 260 264 265 265 266 268 268 265 261 263 265 267 268 269 271 272 274 273 275 277 279
233 235 236 234 227 223 224 229 233 231 235 237 239 248 253 255 259 260 258 260 261 262 264 264 266 268 270 274 279 273 268 270 271 273 272 270 272 272 274 275 279 280 280
245 241 242 234 227 230 239 240 244 237 238 242 244 248 255 258 261 265 266 265 265 266 266 265 267 268 270 274 277 274 272 273 275 276 274 271 272 273 274 276 280 282 282
294 260 248 234 235 243 248 247 248 251 249 250 252 253 260 263 262 266 268 268 269 269 269 268 266 267 269 272 273 271 272 273 275 277 276 273 274 275 274 276 279 280 280
348 323 280 245 243 249 254 257 258 261 258 255 256 261 267 268 268 267 269 272 273 272 273 272 267 267 268 271 273 272 272 272 275 277 279 277 276 275 274 275 277 279 279
353 341 323 287 268 262 261 265 265 264 266 262 263 267 270 270 271 270 272 276 278 280 278 277 275 271 271 272 273 272 271 272 273 275 277 277 276 276 275 275 275 277 278
7 354 338 327 304 288 283 282 275 273 274 270 269 271 273 274 273 274 274 277 277 279 280 279 278 276 274 273 273 274 273 273 273 273 275 276 275 275 277 276 275 276 277
15 9 355 346 326 313 306 299 295 287 283 278 274 273 274 277 278 278 280 278 278 278 280 280 281 279 276 274 275 275 275 274 274 274 274 274 275 276 276 277 277 278 279
14 2 353 347 340 326 318 319 308 292 286 286 284 280 277 278 278 281 283 283 282 281 281 280 281 280 277 276 275 277 277 276 276 275 274 274 274 276 277 278 278 279 281
6 0 355 347 338 333 327 323 318 307 297 293 293 291 287 283 282 282 284 287 289 287 284 283 281 279 278 276 277 278 279 277 277 277 275 274 274 275 277 278 279 280 282
356 353 350 342 334 331 328 325 322 316 307 302 299 295 294 290 287 286 286 288 290 289 287 285 284 283 280 278 278 279 279 279 278 278 278 276 274 274 275 276 279 280 281
345 340 338 335 332 327 321 322 320 316 311 305 302 299 298 295 293 291 288 288 287 287 289 286 284 284 283 281 280 280 279 278 278 278 278 277 275 273 273 274 277 277 279
343 338 330 323 320 320 318 318 319 317 313 308 302 300 298 297 296 295 294 292 291 289 290 288 286 285 283 281 280 281 281 280 278 277 277 277 277 276 275 275 275 277 277
339 339 333 322 316 316 315 313 316 320 318 313 310 307 304 302 300 298 297 294 294 294 292 291 287 285 284 283 282 283 283 281 281 280 278 277 277 277 276 276 275 277 277
333 333 332 327 317 313 312 309 311 315 316 312 308 307 306 304 302 302 300 297 295 294 292 291 289 285 285 285 285 285 284 282 281 279 277 277 276 276 277 277 277 277 277
321 321 322 322 316 310 306 307 308 311 313 312 309 307 304 304 303 301 300 300 299 298 296 294 292 288 285 286 286 287 286 285 282 279 277 277 276 277 276 276 276 276 277
314 314 313 313 315 313 309 307 306 308 311 311 311 310 307 305 304 302 301 301 300 300 297 295 294 291 288 287 287 288 287 287 286 284 280 278 279 279 278 277 276 277 277
305 307 307 307 307 308 308 305 304 306 309 310 310 310 309 308 307 306 304 303 302 301 299 297 295 294 293 290 287 286 287 287 286 286 283 281 280 281 281 280 278 278 279
299 300 301 302 302 302 303 302 302 304 308 310 310 310 311 311 310 307 305 304 303 301 300 298 297 296 295 293 290 289 288 287 285 285 284 282 281 280 281 280 280 279 280
294 295 296 295 295 297 298 298 298 300 304 306 308 309 309 310 311 309 306 304 303 303 300 298 298 296 295 294 292 291 290 288 285 284 284 284 284 282 280 280 281 280 281
290 291 293 291 289 291 293 296 296 296 298 301 302 304 305 306 307 308 306 305 303 302 300 299 298 297 296 295 294 292 291 289 287 285 284 284 283 283 282 281 281 281 282
289 289 293 294 291 290 291 293 296 296 295 296 298 300 301 301 302 304 303 302 301 301 300 299 297 297 297 296 294 293 292 291 288 287 286 286 284 283 282 282 282 282 283
287 287 289 291 290 289 290 289 291 293 293 293 294 296 298 298 299 300 300 300 299 298 298 298 296 296 296 296 295 294 293 291 289 287 286 286 286 285 285 285 284 285 284
285 286 288 289 289 288 287 285 286 289 289 291 293 294 296 296 295 296 296 297 298 298 296 296 295 296 296 295 295 295 293 292 290 288 287 286 285 285 285 285 286 285 285
Height
5893 5893 5893 5894 5894 5895 5895 5895 5896 5897 5898 5898 5899 5899 5899 5900 5900 5900 5901 5901 5901 5901 5901 5901 5901 5902 5902 5902 5902 5902 5903 5903 5903 5903 5903 5903 5903 5903 5903 5902 5902 5902 5902
5892 5893 5893 5893 5893 5894 5895 5895 5896 5897 5897 5898 5898 5899 5899 5899 5899 5899 5899 5900 5900 5900 5900 5900 5900 5901 5900 5901 5901 5901 5901 5901 5901 5901 5901 5901 5901 5901 5901 5901 5900 5900 5900
5892 5892 5892 5892 5893 5893 5894 5895 5895 5896 5896 5897 5897 5898 5898 5898 5898 5898 5898 5898 5899 5899 5899 5899 5899 5899 5899 5899 5899 5899 5899 5899 5899 5899 5899 5899 5899 5899 5899 5898 5898 5898 5898
5891 5891 5892 5892 5892 5893 5893 5894 5894 5895 5895 5896 5896 5897 5897 5897 5897 5897 5897 5897 5897 5897 5897 5897 5897 5897 5897 5897 5897 5897 5897 5897 5897 5897 5897 5896 5896 5896 5896 5896 5896 5896 5895
5891 5891 5891 5891 5891 5892 5893 5893 5894 5894 5894 5895 5895 5895 5895 5896 5896 5896 5896 5896 5895 5895 5895 5895 5895 5895 5895 5895 5895 5894 5894 5894 5894 5894 5894 5894 5894 5893 5893 5893 5893 5893 5892
5890 5890 5890 5890 5891 5891 5892 5892 5892 5893 5893 5893 5893 5894 5894 5894 5894 5894 5894 5894 5893 5893 5893 5893 5892 5892 5893 5892 5892 5892 5892 5892 5891 5891 5891 5891 5891 5890 5890 5890 5890 5889 5889
5890 5890 5890 5890 5890 5890 5890 5891 5891 5891 5891 5891 5892 5892 5892 5892 5892 5891 5891 5891 5891 5891 5890 5890 5890 5890 5889 5889 5889 5889 5889 5889 5888 5888 5887 5887 5887 5887 5886 5886 5886 5885 5885
5889 5889 5889 5889 5889 5889 5889 5889 5889 5889 5889 5890 5890 5890 5890 5890 5889 5889 5889 5888 5888 5888 5887 5887 5887 5886 5886 5886 5886 5886 5886 5885 5885 5884 5884 5883 5883 5883 5882 5882 5881 5881 5880
5889 5889 5889 5889 5889 5888 5888 5888 5888 5887 5887 5887 5887 5887 5887 5887 5887 5887 5886 5886 5885 5885 5885 5884 5883 5883 5883 5882 5882 5882 5882 5881 5881 5880 5880 5879 5879 5878 5878 5877 5877 5876 5876
5889 5889 5889 5889 5888 5887 5887 5887 5886 5886 5885 5885 5885 5885 5885 5884 5884 5884 5883 5882 5882 5882 5881 5881 5880 5880 5879 5879 5878 5878 5877 5877 5876 5876 5875 5875 5874 5873 5873 5872 5872 5871 5871
5890 5890 5889 5888 5887 5886 5886 5885 5884 5884 5883 5883 5882 5882 5882 5881 5881 5880 5880 5879 5878 5878 5877 5876 5876 5875 5875 5874 5874 5873 5872 5872 5872 5871 5870 5870 5869 5868 5868 5867 5867 5866 5865
5891 5890 5889 5888 5887 5886 5885 5884 5882 5882 5881 5880 5880 5879 5879 5878 5877 5877 5876 5875 5874 5873 5872 5872 5871 5871 5870 5869 5869 5868 5867 5867 5866 5866 5865 5864 5864 5863 5862 5862 5861 5860 5860
5891 5889 5888 5887 5886 5885 5884 5882 5881 5880 5879 5878 5878 5877 5876 5875 5874 5873 5872 5871 5870 5869 5868 5867 5866 5866 5865 5864 5864 5863 5862 5862 5861 5860 5859 5859 5858 5857 5857 5856 5855 5854 5853
5890 5889 5887 5886 5885 5884 5882 5881 5880 5878 5877 5876 5875 5874 5873 5871 5870 5869 5868 5867 5866 5865 5863 5862 5861 5860 5860 5859 5858 5857 5857 5856 5855 5854 5853 5852 5852 5851 5850 5849 5849 5848 5847
5889 5888 5886 5885 5883 5882 5881 5879 5877 5876 5874 5873 5872 5870 5869 5868 5867 5865 5864 5862 5862 5860 5859 5857 5856 5855 5854 5853 5852 5851 5851 5850 5849 5848 5847 5846 5845 5844 5843 5843 5842 5841 5840
5887 5886 5884 5883 5881 5879 5878 5877 5875 5874 5872 5870 5869 5867 5866 5864 5863 5861 5859 5858 5857 5856 5854 5852 5851 5849 5848 5847 5846 5845 5844 5843 5842 5841 5840 5839 5838 5837 5836 5836 5835 5834 5833
5886 5884 5882 5880 5878 5876 5875 5874 5873 5871 5870 5868 5866 5865 5863 5861 5859 5857 5855 5854 5852 5850 5849 5847 5845 5843 5842 5841 5840 5839 5837 5836 5835 5834 5833 5832 5831 5830 5829 5829 5828 5826 5826
5884 5882 5880 5877 5875 5873 5872 5871 5870 5868 5866 5865 5863 5861 5859 5857 5855 5853 5851 5849 5847 5845 5843 5842 5840 5838 5836 5835 5833 5832 5831 5829 5828 5827 5826 5825 5823 5822 5822 5821 5820 5819 5818
5881 5879 5877 5875 5873 5871 5869 5867 5866 5864 5863 5861 5859 5857 5855 5853 5850 5848 5846 5844 5842 5840 5838 5836 5834 5832 5831 5829 5827 5826 5824 5823 5821 5819 5818 5817 5816 5815 5814 5813 5812 5811 5810
5877 5875 5874 5872 5870 5868 5866 5864 5862 5860 5859 5857 5855 5853 5851 5848 5846 5843 5841 5839 5837 5834 5832 5830 5828 5826 5824 5822 5821 5819 5818 5816 5814 5813 5811 5810 5809 5807 5806 5805 5804 5803 5802
5873 5871 5869 5868 5866 5864 5862 5860 5858 5856 5855 5853 5851 5849 5846 5843 5841 5839 5836 5834 5831 5829 5827 5824 5822 5820 5818 5816 5814 5812 5810 5809 5807 5805 5804 5803 5801 5800 5799 5798 5796 5795 5794
5868 5866 5865 5863 5861 5859 5857 5856 5854 5852 5850 5848 5846 5844 5841 5838 5836 5833 5831 5828 5826 5823 5821 5818 5816 5814 5812 5810 5807 5805 5803 5802 5800 5799 5797 5795 5794 5792 5791 5789 5788 5787 5786
5862 5861 5859 5857 5855 5854 5852 5850 5848 5846 5844 5842 5840 5838 5835 5833 5830 5828 5825 5822 5820 5817 5815 5812 5810 5807 5805 5803 5801 5798 5796 5794 5792 5791 5789 5787 5786 5784 5782 5781 5780 5778 5777
5856 5854 5853 5851 5849 5848 5846 5844 5842 5840 5838 5836 5834 5831 5829 5826 5823 5821 5819 5816 5813 5811 5808 5806 5803 5801 5798 5796 5793 5791 5789 5787 5785 5783 5781 5780 5778 5776 5774 5772 5771 5769 5768
5848 5847 5845 5844 5842 5840 5839 5837 5835 5833 5831 5829 5827 5824 5822 5819 5816 5814 5811 5809 5806 5804 5801 5799 5796 5794 5791 5789 5786 5784 5782 5779 5777 5775 5773 5771 5769 5768 5766 5764 5762 5760 5759
5840 5839 5837 5836 5834 5832 5830 5829 5827 5825 5823 5821 5819 5816 5814 5811 5809 5806 5804 5801 5799 5796 5793 5791 5788 5786 5784 5781 5778 5776 5774 5771 5769 5767 5765 5763 5761 5759 5757 5756 5753 5751 5750